| time (UTC) | temp F | wind direction | speed MPH | gust MPH | rain 1hr in | rain 24hr in | rain mn in | humidity % | barometer mb |
| 20260507111003 | 55 | 352 | 0.0 | 2.0 | 0.00 | 0.45 | 0.22 | 86 | 1011.8 |
| 20260507110506 | 55 | 352 | 0.0 | 3.0 | 0.00 | 0.45 | 0.22 | 85 | 1011.7 |
| 20260507110013 | 55 | 352 | 1.0 | 3.0 | 0.00 | 0.45 | 0.22 | 85 | 1011.6 |
| 20260507105507 | 55 | 46 | 0.0 | 2.0 | 0.00 | 0.45 | 0.22 | 85 | 1011.7 |
| 20260507105007 | 55 | 46 | 0.0 | 2.0 | 0.00 | 0.45 | 0.22 | 86 | 1011.6 |
| 20260507104512 | 55 | 46 | 0.0 | 2.0 | 0.00 | 0.45 | 0.22 | 86 | 1011.5 |
| 20260507104006 | 55 | 46 | 0.0 | 3.0 | 0.00 | 0.45 | 0.22 | 86 | 1011.5 |
| 20260507103507 | 55 | 11 | 2.0 | 3.0 | 0.00 | 0.45 | 0.22 | 86 | 1011.5 |
| 20260507103011 | 55 | 15 | 0.0 | 2.0 | 0.00 | 0.45 | 0.22 | 86 | 1011.6 |
| 20260507102503 | 55 | 15 | 0.0 | 2.0 | 0.00 | 0.45 | 0.22 | 87 | 1011.5 |
| 20260507102007 | 54 | 15 | 0.0 | 2.0 | 0.00 | 0.45 | 0.22 | 87 | 1011.5 |
| 20260507101519 | 54 | 15 | 0.0 | 2.0 | 0.00 | 0.45 | 0.22 | 87 | 1011.5 |
| 20260507101004 | 54 | 51 | 0.0 | 2.0 | 0.00 | 0.45 | 0.22 | 88 | 1011.4 |
| 20260507100504 | 55 | 51 | 0.0 | 2.0 | 0.00 | 0.45 | 0.22 | 87 | 1011.3 |
| 20260507100011 | 55 | 51 | 0.0 | 2.0 | 0.00 | 0.45 | 0.22 | 87 | 1011.3 |
| 20260507095507 | 54 | 51 | 1.0 | 2.0 | 0.00 | 0.45 | 0.22 | 88 | 1011.2 |
| 20260507095005 | 54 | 18 | 0.0 | 2.0 | 0.00 | 0.45 | 0.22 | 88 | 1011.3 |
| 20260507094514 | 55 | 18 | 0.0 | 2.0 | 0.00 | 0.45 | 0.22 | 87 | 1011.3 |
| 20260507094005 | 55 | 18 | 0.0 | 2.0 | 0.00 | 0.45 | 0.22 | 87 | 1011.3 |
| 20260507093506 | 54 | 18 | 0.0 | 2.0 | 0.00 | 0.45 | 0.22 | 87 | 1011.4 |
| 20260507093012 | 55 | 18 | 0.0 | 2.0 | 0.00 | 0.45 | 0.22 | 87 | 1011.4 |
| 20260507092503 | 55 | 18 | 0.0 | 2.0 | 0.00 | 0.45 | 0.22 | 87 | 1011.2 |
| 20260507092006 | 55 | 18 | 0.0 | 2.0 | 0.00 | 0.45 | 0.22 | 86 | 1011.0 |
| 20260507091516 | 55 | 72 | 0.0 | 2.0 | 0.00 | 0.45 | 0.22 | 85 | 1011.1 |
| 20260507091009 | 55 | 16 | 0.0 | 3.0 | 0.00 | 0.45 | 0.22 | 85 | 1011.2 |
| 20260507090504 | 55 | 36 | 2.0 | 4.0 | 0.00 | 0.45 | 0.22 | 86 | 1011.2 |
| 20260507090017 | 55 | 331 | 1.0 | 4.0 | 0.00 | 0.45 | 0.22 | 87 | 1011.1 |
| 20260507085504 | 55 | 29 | 0.0 | 3.0 | 0.00 | 0.45 | 0.22 | 88 | 1011.1 |
| 20260507085005 | 55 | 62 | 0.0 | 2.0 | 0.00 | 0.45 | 0.22 | 89 | 1011.1 |
| 20260507084530 | 55 | 122 | 0.0 | 2.0 | 0.00 | 0.45 | 0.22 | 89 | 1011.0 |
| 20260507084009 | 55 | 32 | 0.0 | 2.0 | 0.00 | 0.45 | 0.22 | 89 | 1010.8 |
| 20260507083505 | 55 | 32 | 0.0 | 2.0 | 0.00 | 0.45 | 0.22 | 89 | 1011.1 |
| 20260507083014 | 55 | 32 | 0.0 | 2.0 | 0.00 | 0.45 | 0.22 | 89 | 1011.1 |
| 20260507082507 | 55 | 32 | 0.0 | 2.0 | 0.00 | 0.45 | 0.22 | 89 | 1011.1 |
| 20260507082007 | 55 | 32 | 0.0 | 2.0 | 0.00 | 0.45 | 0.22 | 88 | 1011.1 |
| 20260507081520 | 55 | 5 | 0.0 | 2.0 | 0.00 | 0.45 | 0.22 | 88 | 1011.0 |
| 20260507081007 | 55 | 5 | 1.0 | 3.0 | 0.00 | 0.45 | 0.22 | 88 | 1010.9 |
| 20260507080510 | 55 | 340 | 1.0 | 3.0 | 0.00 | 0.45 | 0.22 | 88 | 1010.7 |
| 20260507080014 | 56 | 336 | 0.0 | 2.0 | 0.00 | 0.45 | 0.22 | 88 | 1010.6 |
| 20260507075507 | 56 | 21 | 0.0 | 3.0 | 0.00 | 0.45 | 0.22 | 88 | 1010.6 |
| 20260507075010 | 56 | 330 | 1.0 | 3.0 | 0.00 | 0.45 | 0.22 | 88 | 1010.6 |
| 20260507074527 | 56 | 218 | 0.0 | 2.0 | 0.00 | 0.45 | 0.22 | 88 | 1010.6 |
| 20260507074006 | 56 | 218 | 0.0 | 3.0 | 0.00 | 0.45 | 0.22 | 88 | 1010.6 |
| 20260507073507 | 56 | 47 | 1.0 | 3.0 | 0.00 | 0.45 | 0.22 | 88 | 1010.4 |
| 20260507073016 | 56 | 69 | 0.0 | 3.0 | 0.00 | 0.45 | 0.22 | 89 | 1010.2 |
| 20260507072509 | 56 | 184 | 0.0 | 2.0 | 0.00 | 0.45 | 0.22 | 89 | 1010.1 |
| 20260507072009 | 56 | 19 | 0.0 | 4.0 | 0.00 | 0.45 | 0.22 | 89 | 1010.2 |
| 20260507071521 | 56 | 38 | 1.0 | 4.0 | 0.00 | 0.45 | 0.22 | 89 | 1010.2 |
| 20260507071006 | 56 | 30 | 1.0 | 4.0 | 0.00 | 0.45 | 0.22 | 89 | 1010.2 |
| 20260507070507 | 56 | 80 | 1.0 | 6.0 | 0.00 | 0.45 | 0.22 | 89 | 1010.1 |
| 20260507070018 | 56 | 30 | 0.0 | 6.0 | 0.00 | 0.45 | 0.22 | 89 | 1010.3 |
| 20260507065508 | 56 | 69 | 1.0 | 6.0 | 0.00 | 0.45 | 0.22 | 90 | 1010.3 |
| 20260507065007 | 56 | 9 | 0.0 | 3.0 | 0.01 | 0.45 | 0.22 | 90 | 1010.1 |
| 20260507064518 | 56 | 18 | 1.0 | 3.0 | 0.01 | 0.45 | 0.22 | 90 | 1010.2 |
| 20260507064010 | 56 | 319 | 0.0 | 2.0 | 0.01 | 0.45 | 0.22 | 89 | 1010.3 |
| 20260507063508 | 56 | 94 | 0.0 | 3.0 | 0.01 | 0.45 | 0.22 | 90 | 1010.0 |
| 20260507063022 | 56 | 84 | 0.0 | 5.0 | 0.03 | 0.45 | 0.22 | 89 | 1010.3 |
| 20260507062509 | 56 | 38 | 0.0 | 8.0 | 0.04 | 0.45 | 0.22 | 89 | 1010.6 |
| 20260507062010 | 56 | 339 | 0.0 | 8.0 | 0.06 | 0.45 | 0.22 | 89 | 1010.3 |
| 20260507061520 | 56 | 37 | 3.0 | 7.0 | 0.07 | 0.45 | 0.22 | 89 | 1009.9 |
| 20260507061007 | 56 | 46 | 1.0 | 4.0 | 0.08 | 0.45 | 0.22 | 89 | 1009.9 |
| 20260507060507 | 56 | 30 | 0.0 | 5.0 | 0.08 | 0.45 | 0.22 | 89 | 1010.1 |
| 20260507060020 | 56 | 28 | 3.0 | 6.0 | 0.08 | 0.45 | 0.22 | 89 | 1009.8 |
| 20260507055507 | 57 | 17 | 2.0 | 8.0 | 0.09 | 0.45 | 0.22 | 89 | 1010.0 |
| 20260507055011 | 57 | 34 | 3.0 | 7.0 | 0.08 | 0.44 | 0.21 | 89 | 1009.8 |
| 20260507054516 | 57 | 26 | 1.0 | 2.0 | 0.09 | 0.44 | 0.21 | 89 | 1009.9 |
| 20260507054013 | 57 | 46 | 0.0 | 3.0 | 0.09 | 0.44 | 0.21 | 89 | 1010.3 |
| 20260507053508 | 57 | 28 | 0.0 | 3.0 | 0.11 | 0.44 | 0.21 | 89 | 1010.5 |
| 20260507053022 | 57 | 308 | 0.0 | 3.0 | 0.13 | 0.42 | 0.19 | 89 | 1010.2 |
| 20260507052512 | 57 | 352 | 1.0 | 3.0 | 0.14 | 0.41 | 0.18 | 89 | 1010.2 |
| 20260507052010 | 58 | 305 | 0.0 | 2.0 | 0.14 | 0.39 | 0.16 | 89 | 1009.9 |
| 20260507051533 | 58 | 309 | 0.0 | 3.0 | 0.15 | 0.38 | 0.15 | 88 | 1009.9 |
| 20260507051002 | 58 | 9 | 1.0 | 3.0 | 0.14 | 0.37 | 0.14 | 89 | 1010.3 |
| 20260507050503 | 58 | 256 | 0.0 | 5.0 | 0.14 | 0.37 | 0.14 | 89 | 1010.6 |
| 20260507050008 | 58 | 230 | 1.0 | 5.0 | 0.14 | 0.37 | 0.14 | 89 | 1010.2 |
| 20260507045505 | 58 | 306 | 0.0 | 2.0 | 0.13 | 0.36 | 0.13 | 89 | 1010.1 |
| 20260507045007 | 58 | 306 | 0.0 | 2.0 | 0.13 | 0.36 | 0.13 | 89 | 1009.9 |
| 20260507044514 | 58 | 19 | 1.0 | 2.0 | 0.12 | 0.35 | 0.12 | 88 | 1010.4 |
| 20260507044008 | 58 | 142 | 0.0 | 2.0 | 0.12 | 0.35 | 0.12 | 87 | 1010.2 |
| 20260507043507 | 59 | 142 | 0.0 | 2.0 | 0.10 | 0.33 | 0.10 | 85 | 1010.0 |
| 20260507043020 | 59 | 69 | 0.0 | 3.0 | 0.06 | 0.29 | 0.06 | 82 | 1010.7 |
| 20260507042509 | 60 | 5 | 1.0 | 3.0 | 0.04 | 0.27 | 0.04 | 79 | 1010.5 |
| 20260507042008 | 61 | 352 | 2.0 | 3.0 | 0.02 | 0.25 | 0.02 | 77 | 1010.1 |
| 20260507041524 | 62 | 315 | 1.0 | 3.0 | 0.00 | 0.23 | 0.00 | 76 | 1010.3 |
| 20260507041003 | 62 | 19 | 1.0 | 6.0 | 0.00 | 0.23 | 0.00 | 75 | 1010.2 |
| 20260507040504 | 62 | 37 | 1.0 | 8.0 | 0.00 | 0.23 | 0.00 | 75 | 1010.3 |
| 20260507040009 | 62 | 346 | 3.0 | 8.0 | 0.00 | 0.23 | 0.00 | 74 | 1010.1 |
| 20260507035504 | 63 | 272 | 2.0 | 9.0 | 0.00 | 0.23 | 0.23 | 73 | 1010.1 |
| 20260507035006 | 63 | 19 | 2.0 | 9.0 | 0.00 | 0.23 | 0.23 | 72 | 1010.0 |
| 20260507034512 | 64 | 24 | 2.0 | 9.0 | 0.00 | 0.23 | 0.23 | 73 | 1009.9 |
| 20260507034007 | 64 | 261 | 1.0 | 9.0 | 0.00 | 0.23 | 0.23 | 72 | 1010.1 |
| 20260507033512 | 64 | 51 | 4.0 | 11.0 | 0.00 | 0.23 | 0.23 | 72 | 1010.1 |
| 20260507033018 | 64 | 44 | 2.0 | 11.0 | 0.00 | 0.23 | 0.23 | 73 | 1010.1 |
| 20260507032510 | 64 | 351 | 4.0 | 8.0 | 0.00 | 0.23 | 0.23 | 74 | 1009.8 |
| 20260507032009 | 64 | 313 | 2.0 | 8.0 | 0.00 | 0.23 | 0.23 | 74 | 1009.7 |
| 20260507031523 | 65 | 323 | 2.0 | 8.0 | 0.00 | 0.23 | 0.23 | 75 | 1009.6 |
| 20260507031010 | 65 | 5 | 3.0 | 6.0 | 0.00 | 0.23 | 0.23 | 76 | 1009.4 |
| 20260507030511 | 65 | 48 | 2.0 | 11.0 | 0.00 | 0.23 | 0.23 | 77 | 1009.2 |
| 20260507030024 | 65 | 43 | 3.0 | 11.0 | 0.00 | 0.23 | 0.23 | 77 | 1009.4 |
| 20260507025502 | 66 | 350 | 4.0 | 11.0 | 0.00 | 0.23 | 0.23 | 78 | 1009.5 |
| 20260507025003 | 66 | 344 | 4.0 | 11.0 | 0.00 | 0.23 | 0.23 | 79 | 1009.4 |
| 20260507024509 | 66 | 70 | 0.0 | 6.0 | 0.00 | 0.23 | 0.23 | 79 | 1009.5 |
| 20260507024009 | 66 | 338 | 2.0 | 6.0 | 0.00 | 0.23 | 0.23 | 80 | 1009.4 |
| 20260507023508 | 66 | 352 | 0.0 | 9.0 | 0.00 | 0.23 | 0.23 | 82 | 1009.4 |
| 20260507023016 | 67 | 36 | 2.0 | 9.0 | 0.00 | 0.23 | 0.23 | 82 | 1009.1 |
| 20260507022509 | 67 | 49 | 3.0 | 9.0 | 0.00 | 0.23 | 0.23 | 83 | 1008.9 |
| 20260507022007 | 67 | 302 | 3.0 | 4.0 | 0.00 | 0.23 | 0.23 | 84 | 1008.8 |
| 20260507021519 | 67 | 40 | 1.0 | 3.0 | 0.00 | 0.23 | 0.23 | 86 | 1008.7 |
| 20260507021009 | 66 | 196 | 0.0 | 2.0 | 0.00 | 0.23 | 0.23 | 87 | 1008.7 |
| 20260507020510 | 66 | 196 | 0.0 | 0.0 | 0.00 | 0.23 | 0.23 | 87 | 1008.6 |
| 20260507020021 | 66 | 196 | 0.0 | 0.0 | 0.00 | 0.23 | 0.23 | 87 | 1008.9 |
| 20260507015513 | 66 | 196 | 0.0 | 0.0 | 0.00 | 0.23 | 0.23 | 87 | 1008.8 |
| 20260507015012 | 66 | 196 | 0.0 | 0.0 | 0.00 | 0.23 | 0.23 | 87 | 1008.9 |
| 20260507014510 | 66 | 196 | 0.0 | 2.0 | 0.00 | 0.23 | 0.23 | 87 | 1008.8 |
| 20260507014004 | 66 | 196 | 0.0 | 2.0 | 0.00 | 0.23 | 0.23 | 86 | 1008.8 |
| 20260507013508 | 66 | 196 | 0.0 | 2.0 | 0.00 | 0.23 | 0.23 | 86 | 1008.7 |
| 20260507013013 | 66 | 196 | 0.0 | 1.0 | 0.00 | 0.23 | 0.23 | 86 | 1008.8 |
| 20260507012504 | 66 | 196 | 0.0 | 1.0 | 0.00 | 0.23 | 0.23 | 86 | 1008.9 |
| 20260507012010 | 66 | 196 | 1.0 | 2.0 | 0.00 | 0.23 | 0.23 | 86 | 1009.0 |
| 20260507011531 | 66 | 196 | 0.0 | 2.0 | 0.00 | 0.23 | 0.23 | 86 | 1009.1 |
| 20260507011008 | 66 | 196 | 0.0 | 2.0 | 0.00 | 0.23 | 0.23 | 86 | 1009.2 |
| 20260507010509 | 66 | 196 | 0.0 | 2.0 | 0.00 | 0.23 | 0.23 | 86 | 1009.1 |
| 20260507010022 | 66 | 196 | 0.0 | 2.0 | 0.00 | 0.23 | 0.23 | 86 | 1009.2 |
| 20260507005509 | 66 | 196 | 0.0 | 2.0 | 0.00 | 0.23 | 0.23 | 86 | 1009.1 |
| 20260507005011 | 66 | 196 | 0.0 | 2.0 | 0.00 | 0.23 | 0.23 | 86 | 1008.9 |
| 20260507004523 | 66 | 196 | 0.0 | 2.0 | 0.00 | 0.23 | 0.23 | 86 | 1008.8 |
| 20260507004011 | 66 | 196 | 0.0 | 2.0 | 0.00 | 0.23 | 0.23 | 86 | 1008.8 |
| 20260507003514 | 66 | 196 | 0.0 | 0.0 | 0.00 | 0.23 | 0.23 | 86 | 1009.0 |
| 20260507003016 | 66 | 196 | 0.0 | 0.0 | 0.00 | 0.23 | 0.23 | 86 | 1008.8 |
| 20260507002506 | 66 | 196 | 0.0 | 0.0 | 0.00 | 0.23 | 0.23 | 85 | 1008.8 |
| 20260507002007 | 66 | 196 | 0.0 | 0.0 | 0.00 | 0.23 | 0.23 | 85 | 1008.9 |
| 20260507001517 | 67 | 196 | 0.0 | 2.0 | 0.00 | 0.23 | 0.23 | 83 | 1008.5 |
| 20260507001008 | 67 | 196 | 0.0 | 2.0 | 0.00 | 0.23 | 0.23 | 83 | 1008.7 |
| 20260507000509 | 67 | 196 | 0.0 | 2.0 | 0.00 | 0.23 | 0.23 | 82 | 1008.5 |
| 20260507000023 | 68 | 196 | 0.0 | 2.0 | 0.00 | 0.23 | 0.23 | 82 | 1008.5 |
| 20260506235509 | 68 | 196 | 0.0 | 1.0 | 0.00 | 0.23 | 0.23 | 81 | 1008.3 |
| 20260506235007 | 68 | 196 | 0.0 | 1.0 | 0.00 | 0.23 | 0.23 | 81 | 1008.3 |
| 20260506234524 | 68 | 196 | 0.0 | 2.0 | 0.00 | 0.23 | 0.23 | 81 | 1008.3 |
| 20260506234011 | 68 | 196 | 0.0 | 2.0 | 0.00 | 0.23 | 0.23 | 81 | 1008.1 |
| 20260506233511 | 68 | 196 | 0.0 | 2.0 | 0.00 | 0.23 | 0.23 | 80 | 1008.0 |
| 20260506233028 | 68 | 196 | 0.0 | 2.0 | 0.00 | 0.23 | 0.23 | 80 | 1007.9 |
| 20260506232514 | 68 | 196 | 0.0 | 2.0 | 0.00 | 0.23 | 0.23 | 80 | 1007.9 |
| 20260506232010 | 68 | 196 | 0.0 | 2.0 | 0.00 | 0.23 | 0.23 | 80 | 1007.9 |
| 20260506231515 | 68 | 196 | 0.0 | 2.0 | 0.00 | 0.23 | 0.23 | 80 | 1007.9 |
| 20260506231009 | 68 | 171 | 0.0 | 2.0 | 0.00 | 0.23 | 0.23 | 80 | 1007.8 |
| 20260506230504 | 69 | 159 | 0.0 | 2.0 | 0.00 | 0.23 | 0.23 | 79 | 1007.9 |
| 20260506230019 | 69 | 159 | 0.0 | 2.0 | 0.00 | 0.23 | 0.23 | 79 | 1007.9 |
| 20260506225508 | 69 | 192 | 0.0 | 2.0 | 0.00 | 0.23 | 0.23 | 78 | 1007.8 |
| 20260506225007 | 69 | 184 | 0.0 | 2.0 | 0.00 | 0.23 | 0.23 | 78 | 1007.8 |
| 20260506224523 | 69 | 194 | 0.0 | 4.0 | 0.00 | 0.23 | 0.23 | 78 | 1007.8 |
| 20260506224007 | 69 | 181 | 1.0 | 4.0 | 0.00 | 0.23 | 0.23 | 78 | 1007.7 |
| 20260506223503 | 69 | 172 | 0.0 | 2.0 | 0.00 | 0.23 | 0.23 | 78 | 1007.8 |
| 20260506223008 | 69 | 208 | 0.0 | 3.0 | 0.00 | 0.23 | 0.23 | 78 | 1007.8 |
| 20260506222506 | 69 | 208 | 0.0 | 3.0 | 0.00 | 0.23 | 0.23 | 78 | 1007.7 |
| 20260506222006 | 69 | 149 | 1.0 | 3.0 | 0.00 | 0.23 | 0.23 | 78 | 1007.8 |
| 20260506221502 | 69 | 229 | 0.0 | 2.0 | 0.00 | 0.23 | 0.23 | 78 | 1007.8 |
| 20260506221003 | 69 | 142 | 0.0 | 2.0 | 0.00 | 0.23 | 0.23 | 78 | 1007.8 |
| 20260506220502 | 69 | 180 | 1.0 | 3.0 | 0.00 | 0.23 | 0.23 | 78 | 1007.9 |
| 20260506220004 | 69 | 173 | 0.0 | 5.0 | 0.00 | 0.23 | 0.23 | 78 | 1008.0 |
| 20260506215503 | 69 | 204 | 0.0 | 5.0 | 0.00 | 0.23 | 0.23 | 78 | 1007.9 |
| 20260506215003 | 69 | 183 | 0.0 | 3.0 | 0.00 | 0.23 | 0.23 | 79 | 1007.8 |
| 20260506214503 | 69 | 176 | 0.0 | 4.0 | 0.00 | 0.23 | 0.23 | 79 | 1007.8 |
| 20260506214002 | 69 | 184 | 1.0 | 4.0 | 0.00 | 0.23 | 0.23 | 78 | 1007.8 |
| 20260506213503 | 69 | 221 | 1.0 | 5.0 | 0.00 | 0.23 | 0.23 | 78 | 1008.1 |
| 20260506213006 | 69 | 186 | 1.0 | 5.0 | 0.00 | 0.23 | 0.23 | 78 | 1008.0 |
| 20260506212505 | 69 | 229 | 0.0 | 4.0 | 0.00 | 0.23 | 0.23 | 77 | 1008.0 |
| 20260506212006 | 69 | 182 | 1.0 | 4.0 | 0.00 | 0.23 | 0.23 | 77 | 1008.0 |
| 20260506211511 | 69 | 202 | 1.0 | 4.0 | 0.00 | 0.23 | 0.23 | 77 | 1008.0 |
| 20260506211006 | 69 | 230 | 1.0 | 7.0 | 0.00 | 0.23 | 0.23 | 77 | 1007.9 |
| 20260506210509 | 69 | 188 | 1.0 | 7.0 | 0.00 | 0.23 | 0.23 | 78 | 1007.7 |
| 20260506210002 | 68 | 341 | 1.0 | 4.0 | 0.00 | 0.23 | 0.23 | 78 | 1007.6 |
| 20260506205502 | 68 | 194 | 1.0 | 4.0 | 0.00 | 0.23 | 0.23 | 78 | 1007.7 |
| 20260506205002 | 69 | 255 | 1.0 | 4.0 | 0.00 | 0.23 | 0.23 | 78 | 1007.6 |
| 20260506204505 | 69 | 281 | 1.0 | 4.0 | 0.00 | 0.23 | 0.23 | 77 | 1007.7 |
| 20260506204003 | 69 | 196 | 1.0 | 8.0 | 0.00 | 0.23 | 0.23 | 78 | 1007.6 |
| 20260506203503 | 69 | 234 | 1.0 | 8.0 | 0.00 | 0.23 | 0.23 | 78 | 1007.6 |
| 20260506203010 | 68 | 206 | 2.0 | 6.0 | 0.00 | 0.23 | 0.23 | 77 | 1007.8 |
| 20260506202502 | 68 | 242 | 2.0 | 4.0 | 0.00 | 0.23 | 0.23 | 79 | 1007.7 |
| 20260506202002 | 68 | 238 | 2.0 | 11.0 | 0.00 | 0.23 | 0.23 | 78 | 1007.7 |
| 20260506201508 | 68 | 227 | 2.0 | 11.0 | 0.00 | 0.23 | 0.23 | 78 | 1007.6 |
| 20260506201005 | 68 | 254 | 2.0 | 6.0 | 0.00 | 0.23 | 0.23 | 78 | 1007.8 |
| 20260506200506 | 68 | 240 | 3.0 | 9.0 | 0.00 | 0.23 | 0.23 | 79 | 1007.8 |
| 20260506200012 | 68 | 234 | 2.0 | 9.0 | 0.00 | 0.23 | 0.23 | 78 | 1007.8 |
| 20260506195509 | 68 | 226 | 2.0 | 9.0 | 0.00 | 0.23 | 0.23 | 79 | 1007.7 |
| 20260506195003 | 68 | 234 | 3.0 | 9.0 | 0.00 | 0.23 | 0.23 | 78 | 1007.7 |
| 20260506194503 | 68 | 234 | 2.0 | 8.0 | 0.00 | 0.23 | 0.23 | 79 | 1007.7 |
| 20260506194004 | 68 | 217 | 1.0 | 7.0 | 0.00 | 0.23 | 0.23 | 79 | 1007.6 |
| 20260506193503 | 68 | 237 | 2.0 | 7.0 | 0.00 | 0.23 | 0.23 | 79 | 1007.7 |
| 20260506193004 | 67 | 253 | 3.0 | 7.0 | 0.00 | 0.23 | 0.23 | 79 | 1007.7 |
| 20260506192503 | 67 | 223 | 3.0 | 7.0 | 0.00 | 0.23 | 0.23 | 79 | 1007.6 |
| 20260506192004 | 67 | 224 | 3.0 | 7.0 | 0.00 | 0.23 | 0.23 | 79 | 1008.1 |
| 20260506191508 | 67 | 214 | 3.0 | 7.0 | 0.00 | 0.23 | 0.23 | 80 | 1007.9 |
| 20260506191004 | 67 | 208 | 2.0 | 6.0 | 0.00 | 0.23 | 0.23 | 80 | 1008.3 |
| 20260506190506 | 66 | 209 | 1.0 | 7.0 | 0.00 | 0.23 | 0.23 | 81 | 1008.3 |
| 20260506190011 | 66 | 232 | 3.0 | 8.0 | 0.00 | 0.23 | 0.23 | 80 | 1008.3 |
| 20260506185506 | 66 | 254 | 2.0 | 8.0 | 0.00 | 0.23 | 0.23 | 80 | 1008.3 |
| 20260506185009 | 67 | 225 | 1.0 | 5.0 | 0.00 | 0.23 | 0.23 | 80 | 1008.5 |
| 20260506184523 | 67 | 226 | 3.0 | 5.0 | 0.00 | 0.23 | 0.23 | 80 | 1008.7 |
| 20260506184008 | 67 | 324 | 1.0 | 5.0 | 0.00 | 0.23 | 0.23 | 80 | 1008.5 |
| 20260506183506 | 66 | 233 | 3.0 | 6.0 | 0.00 | 0.23 | 0.23 | 80 | 1008.5 |
| 20260506183006 | 66 | 244 | 2.0 | 8.0 | 0.00 | 0.23 | 0.23 | 80 | 1008.4 |
| 20260506182503 | 67 | 162 | 2.0 | 8.0 | 0.00 | 0.23 | 0.23 | 79 | 1008.4 |
| 20260506182004 | 67 | 225 | 2.0 | 4.0 | 0.00 | 0.23 | 0.23 | 80 | 1008.6 |
| 20260506181506 | 66 | 150 | 2.0 | 8.0 | 0.00 | 0.23 | 0.23 | 80 | 1008.6 |
| 20260506181004 | 66 | 275 | 3.0 | 8.0 | 0.00 | 0.23 | 0.23 | 79 | 1008.7 |
| 20260506180508 | 66 | 242 | 2.0 | 10.0 | 0.00 | 0.23 | 0.23 | 79 | 1008.7 |
| 20260506180010 | 66 | 217 | 3.0 | 10.0 | 0.00 | 0.23 | 0.23 | 79 | 1008.7 |
| 20260506175504 | 66 | 225 | 3.0 | 5.0 | 0.00 | 0.23 | 0.23 | 80 | 1008.9 |
| 20260506175005 | 66 | 267 | 3.0 | 5.0 | 0.00 | 0.23 | 0.23 | 81 | 1008.7 |
| 20260506174512 | 66 | 260 | 2.0 | 5.0 | 0.00 | 0.23 | 0.23 | 81 | 1008.9 |
| 20260506174012 | 66 | 290 | 3.0 | 6.0 | 0.00 | 0.23 | 0.23 | 82 | 1008.9 |
| 20260506173510 | 65 | 221 | 2.0 | 6.0 | 0.00 | 0.23 | 0.23 | 84 | 1008.9 |
| 20260506173016 | 65 | 211 | 2.0 | 6.0 | 0.00 | 0.23 | 0.23 | 84 | 1008.8 |
| 20260506172508 | 65 | 202 | 2.0 | 6.0 | 0.00 | 0.23 | 0.23 | 84 | 1008.9 |
| 20260506172002 | 64 | 184 | 2.0 | 7.0 | 0.00 | 0.23 | 0.23 | 84 | 1009.0 |
| 20260506171503 | 65 | 232 | 2.0 | 7.0 | 0.00 | 0.23 | 0.23 | 85 | 1008.8 |
| 20260506171003 | 64 | 251 | 2.0 | 10.0 | 0.00 | 0.23 | 0.23 | 85 | 1009.0 |
| 20260506170502 | 64 | 212 | 3.0 | 10.0 | 0.00 | 0.23 | 0.23 | 85 | 1009.2 |
| 20260506170011 | 64 | 214 | 3.0 | 6.0 | 0.00 | 0.23 | 0.23 | 86 | 1009.2 |
| 20260506165502 | 64 | 248 | 3.0 | 7.0 | 0.00 | 0.23 | 0.23 | 86 | 1009.1 |
| 20260506165007 | 64 | 249 | 3.0 | 7.0 | 0.00 | 0.23 | 0.23 | 86 | 1009.1 |
| 20260506164511 | 64 | 233 | 2.0 | 7.0 | 0.00 | 0.23 | 0.23 | 87 | 1009.2 |
| 20260506164007 | 64 | 226 | 2.0 | 8.0 | 0.00 | 0.23 | 0.23 | 88 | 1009.3 |
| 20260506163507 | 63 | 202 | 2.0 | 8.0 | 0.00 | 0.23 | 0.23 | 88 | 1009.3 |
| 20260506163017 | 63 | 187 | 1.0 | 6.0 | 0.00 | 0.23 | 0.23 | 89 | 1009.3 |
| 20260506162512 | 63 | 204 | 2.0 | 7.0 | 0.00 | 0.23 | 0.23 | 89 | 1009.3 |
| 20260506162012 | 62 | 219 | 3.0 | 7.0 | 0.00 | 0.23 | 0.23 | 89 | 1009.4 |
| 20260506161533 | 62 | 235 | 2.0 | 5.0 | 0.00 | 0.23 | 0.23 | 89 | 1009.4 |
| 20260506161011 | 62 | 222 | 2.0 | 6.0 | 0.01 | 0.23 | 0.23 | 90 | 1009.4 |
| 20260506160505 | 62 | 239 | 2.0 | 7.0 | 0.01 | 0.23 | 0.23 | 90 | 1009.4 |
| 20260506160007 | 62 | 223 | 2.0 | 7.0 | 0.02 | 0.23 | 0.23 | 90 | 1009.4 |
| 20260506155503 | 63 | 249 | 1.0 | 3.0 | 0.03 | 0.23 | 0.23 | 91 | 1009.5 |
| 20260506155003 | 62 | 204 | 1.0 | 6.0 | 0.03 | 0.23 | 0.23 | 91 | 1009.6 |
| 20260506154508 | 62 | 213 | 2.0 | 6.0 | 0.04 | 0.23 | 0.23 | 91 | 1009.6 |
| 20260506154007 | 62 | 248 | 1.0 | 6.0 | 0.06 | 0.23 | 0.23 | 91 | 1009.5 |
| 20260506153508 | 62 | 193 | 2.0 | 6.0 | 0.07 | 0.23 | 0.23 | 91 | 1009.7 |
| 20260506153015 | 61 | 179 | 1.0 | 5.0 | 0.07 | 0.23 | 0.23 | 91 | 1009.7 |
| 20260506152507 | 61 | 225 | 1.0 | 5.0 | 0.07 | 0.23 | 0.23 | 91 | 1009.7 |
| 20260506152009 | 61 | 224 | 1.0 | 7.0 | 0.07 | 0.23 | 0.23 | 91 | 1009.5 |
| 20260506151520 | 61 | 242 | 1.0 | 7.0 | 0.08 | 0.23 | 0.23 | 91 | 1009.6 |
| 20260506151012 | 61 | 244 | 0.0 | 5.0 | 0.08 | 0.22 | 0.22 | 91 | 1009.9 |
| 20260506150508 | 61 | 223 | 1.0 | 5.0 | 0.09 | 0.22 | 0.22 | 91 | 1010.1 |
| 20260506150024 | 61 | 213 | 1.0 | 5.0 | 0.10 | 0.21 | 0.21 | 91 | 1010.1 |
| 20260506145512 | 61 | 217 | 1.0 | 6.0 | 0.10 | 0.20 | 0.20 | 90 | 1010.2 |
| 20260506145003 | 61 | 199 | 2.0 | 6.0 | 0.11 | 0.20 | 0.20 | 90 | 1010.4 |
| 20260506144523 | 61 | 229 | 1.0 | 5.0 | 0.12 | 0.19 | 0.19 | 90 | 1010.4 |
| 20260506144006 | 61 | 173 | 0.0 | 8.0 | 0.11 | 0.17 | 0.17 | 91 | 1010.3 |
| 20260506143506 | 61 | 193 | 0.0 | 8.0 | 0.10 | 0.16 | 0.16 | 91 | 1010.4 |
| 20260506143010 | 61 | 217 | 1.0 | 4.0 | 0.11 | 0.16 | 0.16 | 91 | 1010.4 |
| 20260506142509 | 61 | 229 | 0.0 | 3.0 | 0.12 | 0.16 | 0.16 | 91 | 1010.3 |
| 20260506142008 | 61 | 181 | 0.0 | 3.0 | 0.13 | 0.16 | 0.16 | 91 | 1010.3 |
| 20260506141516 | 60 | 133 | 0.0 | 3.0 | 0.12 | 0.15 | 0.15 | 91 | 1010.2 |
| 20260506141009 | 60 | 191 | 0.0 | 3.0 | 0.12 | 0.14 | 0.14 | 90 | 1010.1 |
| 20260506140508 | 60 | 198 | 1.0 | 2.0 | 0.11 | 0.13 | 0.13 | 90 | 1010.2 |
| 20260506140029 | 61 | 194 | 0.0 | 6.0 | 0.09 | 0.11 | 0.11 | 90 | 1010.3 |
| 20260506135507 | 61 | 157 | 0.0 | 6.0 | 0.08 | 0.10 | 0.10 | 89 | 1010.3 |
| 20260506135009 | 61 | 209 | 0.0 | 3.0 | 0.07 | 0.09 | 0.09 | 89 | 1010.3 |
| 20260506134530 | 61 | 179 | 1.0 | 3.0 | 0.05 | 0.07 | 0.07 | 89 | 1010.3 |
| 20260506134004 | 61 | 175 | 0.0 | 3.0 | 0.04 | 0.06 | 0.06 | 88 | 1010.5 |
| 20260506133509 | 61 | 205 | 0.0 | 3.0 | 0.04 | 0.06 | 0.06 | 88 | 1010.5 |
| 20260506133011 | 61 | 179 | 1.0 | 3.0 | 0.03 | 0.05 | 0.05 | 87 | 1010.6 |
| 20260506132508 | 61 | 218 | 1.0 | 2.0 | 0.02 | 0.04 | 0.04 | 87 | 1010.7 |
| 20260506132006 | 62 | 215 | 0.0 | 3.0 | 0.01 | 0.03 | 0.03 | 86 | 1010.8 |
| 20260506131519 | 62 | 194 | 1.0 | 5.0 | 0.02 | 0.03 | 0.03 | 86 | 1010.7 |
| 20260506131007 | 62 | 198 | 0.0 | 5.0 | 0.01 | 0.02 | 0.02 | 86 | 1010.7 |
| 20260506130512 | 62 | 211 | 1.0 | 5.0 | 0.02 | 0.02 | 0.02 | 86 | 1010.7 |
| 20260506130021 | 62 | 209 | 1.0 | 4.0 | 0.02 | 0.02 | 0.02 | 86 | 1010.4 |
| 20260506125510 | 62 | 176 | 0.0 | 4.0 | 0.02 | 0.02 | 0.02 | 86 | 1010.2 |
| 20260506125009 | 62 | 179 | 1.0 | 4.0 | 0.02 | 0.02 | 0.02 | 86 | 1010.2 |
| 20260506124522 | 62 | 157 | 0.0 | 2.0 | 0.02 | 0.02 | 0.02 | 86 | 1010.0 |
| 20260506124009 | 62 | 188 | 0.0 | 2.0 | 0.02 | 0.02 | 0.02 | 85 | 1010.0 |
| 20260506123512 | 62 | 176 | 0.0 | 2.0 | 0.02 | 0.02 | 0.02 | 85 | 1009.9 |
| 20260506123036 | 62 | 173 | 0.0 | 3.0 | 0.02 | 0.02 | 0.02 | 84 | 1009.9 |
| 20260506122506 | 62 | 293 | 1.0 | 3.0 | 0.02 | 0.02 | 0.02 | 84 | 1010.1 |
| 20260506122007 | 62 | 223 | 0.0 | 2.0 | 0.02 | 0.02 | 0.02 | 83 | 1010.1 |
| 20260506121514 | 62 | 189 | 1.0 | 3.0 | 0.01 | 0.01 | 0.01 | 82 | 1010.4 |
| 20260506121007 | 63 | 228 | 0.0 | 3.0 | 0.01 | 0.01 | 0.01 | 81 | 1010.5 |
| 20260506120507 | 63 | 217 | 1.0 | 3.0 | 0.00 | 0.00 | 0.00 | 80 | 1010.5 |
| 20260506120024 | 63 | 211 | 1.0 | 5.0 | 0.00 | 0.00 | 0.00 | 78 | 1010.4 |
| 20260506115514 | 64 | 165 | 2.0 | 5.0 | 0.00 | 0.00 | 0.00 | 76 | 1010.4 |
| 20260506115013 | 64 | 209 | 2.0 | 9.0 | 0.00 | 0.00 | 0.00 | 74 | 1010.4 |
| 20260506114522 | 65 | 210 | 1.0 | 9.0 | 0.00 | 0.00 | 0.00 | 74 | 1010.3 |
| 20260506114014 | 65 | 205 | 0.0 | 6.0 | 0.00 | 0.00 | 0.00 | 74 | 1010.2 |
| 20260506113508 | 65 | 232 | 2.0 | 6.0 | 0.00 | 0.00 | 0.00 | 74 | 1010.1 |
| 20260506113033 | 64 | 211 | 1.0 | 6.0 | 0.00 | 0.00 | 0.00 | 74 | 1010.1 |
| 20260506112508 | 65 | 134 | 0.0 | 6.0 | 0.00 | 0.00 | 0.00 | 74 | 1010.0 |
| 20260506112012 | 65 | 193 | 1.0 | 6.0 | 0.00 | 0.00 | 0.00 | 73 | 1009.9 |
| 20260506111532 | 65 | 194 | 1.0 | 4.0 | 0.00 | 0.00 | 0.00 | 73 | 1009.8 |